Location: Ipswich
(52.0579°N, 1.1528°E)
Time: 09:46:34
(UTC+01:00)

ISS - Pass Details

Date: 08 May 2026
Orbit: 414 x 424 km, 51.6° (Epoch: 8 May)

Event Time Altitude Azimuth Distance (km) Brightness Sun altitude
Exits shadow 01:34:32 23° 99° (E) 942 -2.0 -20.3°
Drops below altitude 10° 01:35:56 10° 98° (E) 1,498 -0.9 -20.2°
Sets 01:38:02 0° 97° (E) 2,363 0.1 -20.2°
